Weather History for Pontiac, MI

Change the Weather History Date:

Thursday, January 2, 2014

  Actual Average Record
Temperature  
Mean Temperature 8 °F -  
Max Temperature 14 °F 30 °F 54 °F (2000)
Min Temperature 1 °F 18 °F 1 °F (2001)
Degree Days  
Heating Degree Days 58    
Moisture  
Dew Point 5 °F    
Average Humidity 77    
Maximum Humidity 86    
Minimum Humidity 67    
Precipitation  
Precipitation 0.01 in - - ()
Snow  
Snow 0.00 in - - ()
Snow Depth 4.00 in    
Sea Level Pressure  
Sea Level Pressure 30.14 in    
Wind  
Wind Speed 13 mph (NNE)    
Max Wind Speed 21 mph    
Max Gust Speed 34 mph    
Visibility 3 miles    
Events Snow    
Averages and records for this station are not official NWS values.
T = Trace of Precipitation, MM = Missing Value Source: NWS Daily Summary

Daily Weather History Graph

Daily Weather History Graph

Search for Another Location

Airport:

Trip Planner

Search our weather history database for the weather conditions in past years. The results will help you decide how hot, cold, wet, or windy it might be!

Date:

Astronomy

Jan. 02, 2014 Rise Set
Actual Time 8:04 AM EST 5:11 PM EST
Civil Twilight 7:32 AM EST 5:43 PM EST
Nautical Twilight 6:56 AM EST 6:19 PM EST
Astronomical Twilight 6:22 AM EST 6:53 PM EST
Moon 8:42 AM EST (1/2) 7:10 PM EST (1/2)
Length of Visible Light 10h 11m
Length of Day
9h 07m
New Moon, 2% of the Moon is Illuminated
Jan 2
New Moon
Jan 7
First Quarter
Jan 15
Full
Jan 24
Last Quarter
Jan 30
New

Hourly Weather History & Observations

Time (EST) Temp. Windchill Dew Point Humidity Pressure Visibility Wind Dir Wind Speed Gust Speed Precip Events Conditions
12:07 AM 14.0 °F 2.0 °F 10.4 °F 86% 30.19 in 1.2 mi NE 9.2 mph - 0.00 in Snow Light Snow
12:41 AM 14.0 °F -1.4 °F 8.6 °F 79% 30.17 in 2.5 mi NE 15.0 mph 21.9 mph 0.00 in Snow Light Snow
12:53 AM 14.0 °F 0.5 °F 9.0 °F 80% 30.23 in 2.5 mi NE 11.5 mph - 0.00 in Snow Light Snow
1:53 AM 12.9 °F -1.6 °F 8.1 °F 81% 30.22 in 2.5 mi NE 12.7 mph - 0.00 in Snow Light Snow
2:20 AM 12.2 °F -0.2 °F 6.8 °F 79% 30.16 in 3.0 mi NE 9.2 mph - 0.00 in Snow Light Snow
2:31 AM 12.2 °F -2.5 °F 6.8 °F 79% 30.16 in 2.5 mi NE 12.7 mph - 0.00 in Snow Light Snow
2:48 AM 12.2 °F -0.2 °F 6.8 °F 79% 30.16 in 3.0 mi NE 9.2 mph 19.6 mph 0.00 in Snow Light Snow
2:49 AM 12.9 °F 0.7 °F 7.0 °F 77% 30.22 in 3.0 mi NE 9.2 mph 19.6 mph 0.00 in Snow Light Snow
3:50 AM 12.2 °F 0.7 °F 6.8 °F 79% 30.14 in 2.0 mi NE 8.1 mph - 0.00 in Snow Light Snow
3:53 AM 12.0 °F -1.3 °F 7.0 °F 80% 30.20 in 2.0 mi NE 10.4 mph - 0.00 in Snow Light Snow
4:10 AM 12.2 °F -2.5 °F 6.8 °F 79% 30.13 in 3.0 mi NNE 12.7 mph - 0.00 in Snow Light Snow
4:38 AM 12.2 °F -1.0 °F 6.8 °F 79% 30.13 in 2.0 mi NE 10.4 mph - 0.00 in Snow Light Snow
4:53 AM 12.0 °F -3.4 °F 6.1 °F 77% 30.18 in 3.0 mi NE 13.8 mph - 0.00 in Snow Light Snow
5:05 AM 12.2 °F -2.5 °F 6.8 °F 79% 30.12 in 2.5 mi NE 12.7 mph - 0.00 in Snow Light Snow
5:20 AM 10.4 °F -4.8 °F 6.8 °F 85% 30.12 in 1.8 mi NE 12.7 mph - 0.00 in Snow Light Snow
5:53 AM 10.9 °F -3.4 °F 6.1 °F 81% 30.17 in 1.2 mi NNE 11.5 mph - 0.00 in Snow Light Snow
6:28 AM 10.4 °F -5.4 °F 6.8 °F 85% 30.10 in 2.0 mi NE 13.8 mph 21.9 mph 0.00 in Snow Light Snow
6:45 AM 10.4 °F -8.2 °F 6.8 °F 85% 30.09 in 1.8 mi NE 19.6 mph 23.0 mph 0.00 in Snow Light Snow
6:53 AM 10.9 °F -6.5 °F 5.0 °F 77% 30.16 in 2.0 mi NE 17.3 mph 24.2 mph 0.00 in Snow Light Snow
7:53 AM 10.9 °F -4.7 °F 5.0 °F 77% 30.14 in 1.8 mi NE 13.8 mph 27.6 mph 0.00 in Snow Light Snow
8:53 AM 10.0 °F -5.9 °F 5.0 °F 80% 30.15 in 1.2 mi NNE 13.8 mph - 0.00 in Snow Light Snow
9:14 AM 10.4 °F -5.4 °F 5.0 °F 79% 30.09 in 0.8 mi NNE 13.8 mph 20.7 mph 0.00 in Snow Light Snow
9:53 AM 10.0 °F -5.9 °F 5.0 °F 80% 30.15 in 1.0 mi NNE 13.8 mph 20.7 mph 0.00 in Snow Light Snow
10:53 AM 10.9 °F -4.7 °F 5.0 °F 77% 30.16 in 0.8 mi NNE 13.8 mph 20.7 mph 0.00 in Snow Light Snow
11:16 AM 10.4 °F -5.4 °F 5.0 °F 79% 30.08 in 1.0 mi NNE 13.8 mph 23.0 mph 0.00 in Snow Light Snow
11:53 AM 10.9 °F -7.9 °F 3.9 °F 73% 30.13 in 1.2 mi NNE 20.7 mph 34.5 mph 0.01 in Snow Light Snow
12:14 PM 12.2 °F -2.5 °F 5.0 °F 73% 30.07 in 2.0 mi NNE 12.7 mph - 0.00 in Snow Light Snow
12:33 PM 12.2 °F -1.0 °F 6.8 °F 79% 30.06 in 1.8 mi NE 10.4 mph 19.6 mph 0.00 in Snow Light Snow
12:53 PM 12.9 °F -3.4 °F 6.1 °F 74% 30.11 in 1.2 mi NNE 16.1 mph 23.0 mph 0.00 in Snow Light Snow
1:13 PM 12.2 °F -4.3 °F 6.8 °F 79% 30.05 in 2.0 mi NE 16.1 mph 23.0 mph 0.00 in Snow Light Snow
1:26 PM 12.2 °F -5.8 °F 6.8 °F 79% 30.04 in 1.0 mi NNE 19.6 mph 24.2 mph 0.00 in Snow Light Snow
1:35 PM 12.2 °F -3.7 °F 6.8 °F 79% 30.04 in 1.0 mi NNE 15.0 mph 23.0 mph 0.00 in Snow Light Snow
1:42 PM 12.2 °F -3.7 °F 6.8 °F 79% 30.04 in 0.2 mi NNE 15.0 mph - 0.00 in Snow Heavy Snow
1:53 PM 12.9 °F -3.9 °F 8.1 °F 81% 30.10 in 0.8 mi NNE 17.3 mph 21.9 mph 0.00 in Snow Light Snow
2:15 PM 12.2 °F -4.3 °F 6.8 °F 79% 30.04 in 1.0 mi North 16.1 mph 26.5 mph 0.00 in Snow Light Snow
2:53 PM 12.9 °F -3.9 °F 7.0 °F 77% 30.09 in 1.2 mi NNE 17.3 mph 25.3 mph 0.00 in Snow Light Snow
3:42 PM 12.2 °F -6.3 °F 5.0 °F 73% 30.04 in 2.5 mi North 20.7 mph 27.6 mph 0.00 in Snow Light Snow
3:53 PM 12.9 °F -4.4 °F 5.0 °F 71% 30.10 in 4.0 mi North 18.4 mph 28.8 mph 0.00 in Snow Light Snow
4:42 PM 12.2 °F -5.3 °F 3.2 °F 67% 30.06 in 2.5 mi North 18.4 mph 25.3 mph 0.00 in Snow Light Snow
4:46 PM 12.2 °F -4.8 °F 3.2 °F 67% 30.06 in 1.5 mi North 17.3 mph 25.3 mph 0.00 in Snow Light Snow
4:53 PM 10.9 °F -6.5 °F 5.0 °F 77% 30.13 in 1.8 mi North 17.3 mph 23.0 mph 0.00 in Snow Light Snow
4:55 PM 10.4 °F -7.2 °F 5.0 °F 79% 30.07 in 2.0 mi North 17.3 mph 23.0 mph 0.00 in Snow Light Snow
5:21 PM 10.4 °F -5.4 °F 5.0 °F 79% 30.08 in 2.5 mi North 13.8 mph - 0.00 in Snow Light Snow
5:48 PM 10.4 °F -6.6 °F 3.2 °F 73% 30.09 in 2.5 mi North 16.1 mph 25.3 mph 0.00 in Snow Light Snow
5:53 PM 10.0 °F -7.6 °F 3.9 °F 76% 30.16 in 2.5 mi North 17.3 mph 23.0 mph 0.00 in Snow Light Snow
6:38 PM 10.4 °F -7.2 °F 3.2 °F 73% 30.12 in 3.0 mi North 17.3 mph 26.5 mph 0.00 in Snow Light Snow
6:53 PM 10.0 °F -8.1 °F 3.0 °F 73% 30.19 in 3.0 mi North 18.4 mph 28.8 mph 0.00 in Snow Light Snow
7:20 PM 8.6 °F -9.5 °F 3.2 °F 79% 30.14 in 2.5 mi NNW 17.3 mph 23.0 mph 0.00 in Snow Light Snow
7:28 PM 8.6 °F -8.9 °F 1.4 °F 73% 30.15 in 2.5 mi NNW 16.1 mph 24.2 mph 0.00 in Snow Light Snow
7:48 PM 6.8 °F -10.0 °F 1.4 °F 79% 30.16 in 3.0 mi NNW 13.8 mph 24.2 mph 0.00 in Snow Light Snow
7:53 PM 7.0 °F -10.4 °F 1.0 °F 77% 30.22 in 3.0 mi NNW 15.0 mph 23.0 mph 0.00 in Snow Blowing Snow
8:53 PM 5.0 °F -13.6 °F -2.0 °F 73% 30.25 in 10.0 mi NNW 16.1 mph 26.5 mph N/A   Overcast
9:53 PM 3.0 °F -14.1 °F -5.1 °F 69% 30.27 in 10.0 mi NNW 12.7 mph 19.6 mph N/A   Scattered Clouds
10:53 PM 1.9 °F -16.2 °F -6.0 °F 69% 30.27 in 10.0 mi NNW 13.8 mph - N/A   Mostly Cloudy
11:53 PM 1.0 °F -14.9 °F -7.1 °F 69% 30.28 in 10.0 mi NW 10.4 mph - N/A   Clear